K3GM Weather Reports


Display with metric or nautical units.
time (UTC)temp
F
wind
direction
speed
MPH
gust
MPH
rain 1hr
in
rain 24hr
in
rain mn
in
humidity
%
barometer
mb
20260505080033 60 0 0.0 0.0 0.00 0.00 0.00 76 1011.0
20260505074535 60 0 0.0 0.0 0.00 0.00 0.00 76 1011.1
20260505073034 59 0 0.0 0.0 0.00 0.00 0.00 77 1011.0
20260505071536 58 0 0.0 0.0 0.00 0.00 0.00 77 1011.0
20260505070044 58 0 0.0 0.0 0.00 0.00 0.00 77 1011.1
20260505064536 58 0 0.0 1.0 0.00 0.00 0.00 77 1011.0
20260505063035 58 0 0.0 0.0 0.00 0.00 0.00 75 1010.9
20260505061534 58 0 0.0 0.0 0.00 0.00 0.00 74 1011.0
20260505060039 59 0 0.0 0.0 0.00 0.00 0.00 74 1011.0
20260505054531 59 0 0.0 0.0 0.00 0.00 0.00 72 1011.2
20260505053101 59 0 0.0 0.0 0.00 0.00 0.00 72 1011.3
20260505051532 60 0 0.0 0.0 0.00 0.00 0.00 71 1011.3
20260505041541 62 0 0.0 3.0 0.00 0.00 0.00 65 1011.2
20260505040038 62 129 0.0 3.0 0.00 0.00 0.00 67 1011.2
20260505034536 61 0 0.0 4.0 0.00 0.00 0.00 67 1011.3
20260505033045 62 0 0.0 3.0 0.00 0.00 0.00 66 1011.3
20260505031535 62 130 1.0 7.0 0.00 0.00 0.00 65 1011.3
20260505030035 61 0 0.0 3.0 0.00 0.00 0.00 63 1011.3
20260505024535 62 0 0.0 5.0 0.00 0.00 0.00 60 1011.4
20260505023035 62 133 0.0 4.0 0.00 0.00 0.00 51 1011.5
20260505021536 63 0 0.0 3.0 0.00 0.00 0.00 54 1011.5
20260505020033 63 0 0.0 4.0 0.00 0.00 0.00 52 1011.4
20260505014535 64 0 0.0 2.0 0.00 0.00 0.00 51 1011.5
20260505013038 65 0 0.0 7.0 0.00 0.00 0.00 50 1011.3
20260505011555 65 0 0.0 4.0 0.00 0.00 0.00 49 1011.2
20260505010036 66 124 0.0 2.0 0.00 0.00 0.00 47 1011.1
20260505004535 66 0 0.0 3.0 0.00 0.00 0.00 46 1010.9
20260505003032 66 163 0.0 2.0 0.00 0.00 0.00 50 1010.7
20260505001536 66 0 0.0 1.0 0.00 0.00 0.00 41 1010.6
20260505000111 68 163 0.0 2.0 0.00 0.00 0.00 46 1010.5
20260504234533 68 0 0.0 4.0 0.00 0.00 0.00 44 1010.4
20260504233045 69 0 0.0 4.0 0.00 0.00 0.00 36 1010.2
20260504231533 69 29 0.0 5.0 0.00 0.00 0.00 41 1010.2
20260504230037 69 0 0.0 5.0 0.00 0.00 0.00 35 1010.2
20260504224541 70 0 0.0 5.0 0.00 0.00 0.00 40 1010.3
20260504223036 70 128 0.0 4.0 0.00 0.00 0.00 39 1010.2
20260504221533 70 200 0.0 4.0 0.00 0.00 0.00 39 1010.2
20260504220035 70 202 0.0 3.0 0.00 0.00 0.00 32 1010.3
20260504214536 71 0 1.0 5.0 0.00 0.00 0.00 39 1010.5
20260504213038 71 0 0.0 2.0 0.00 0.00 0.00 30 1010.4
20260504211535 71 0 0.0 5.0 0.00 0.00 0.00 28 1010.4
20260504210037 72 0 0.0 6.0 0.00 0.00 0.00 36 1010.5
20260504204531 72 0 0.0 5.0 0.00 0.00 0.00 37 1010.4
20260504203034 72 0 2.0 6.0 0.00 0.00 0.00 28 1010.3
20260504201537 72 0 1.0 3.0 0.00 0.00 0.00 32 1010.4
20260504200035 72 0 1.0 6.0 0.00 0.00 0.00 29 1010.3
20260504194534 72 0 0.0 5.0 0.00 0.00 0.00 38 1010.6
20260504193035 73 202 0.0 8.0 0.00 0.00 0.00 28 1010.8
20260504191535 73 317 0.0 6.0 0.00 0.00 0.00 28 1011.0
20260504190039 72 0 1.0 4.0 0.00 0.00 0.00 30 1011.1
20260504184535 72 0 0.0 4.0 0.00 0.00 0.00 27 1011.5
20260504183034 72 207 1.0 6.0 0.00 0.00 0.00 32 1011.8
20260504181535 72 0 1.0 5.0 0.00 0.00 0.00 27 1011.9
20260504180039 72 0 0.0 6.0 0.00 0.00 0.00 31 1012.2
20260504174537 72 193 1.0 5.0 0.00 0.00 0.00 30 1012.6
20260504173033 72 315 0.0 3.0 0.00 0.00 0.00 29 1012.7
20260504171544 71 0 0.0 7.0 0.00 0.00 0.00 28 1013.1
20260504081536 44 0 0.0 0.0 0.00 0.00 0.00 80 1015.5